User: anonymous   Login
Location: Unspecified
(0.0000°N, 0.0000°E)
Time: 18:13:44
(UTC+02:00)
Language:

AO-40 - Orbit

View from above orbital plane
View from above orbital plane
View from above satellite
View from above satellite

Ground track
Ground track

The orbit data is extracted from the following two-line orbital elements,

1 26609U 00072B   15248.37992213 -.00000077  00000-0  00000+0 0  9992
2 26609   9.4025 338.4931 7953941 262.3146  11.6862  1.25586050 68165
Epoch (UTC): 05 September 2015 09:07:05
Eccentricity: 0.7953941
inclination: 9.4025°
perigee height: 1047 km
apogee height: 58774 km
right ascension of ascending node: 338.4931°
argument of perigee: 262.3146°
revolutions per day: 1.25586050
mean anomaly at epoch: 11.6862°
orbit number at epoch: 6816

The dashed part of the orbit path shows where the satellite is in the earth's shadow,  

DLR